#timestamp,LO_Frequency,Hit,StdDev 
1516514415.7,286046669.2,N
1516514435.6,286046632.2,N
1516514455.4,286046633.1,N
1516514475.2,286046662.3,N
1516514495.1,286046671.9,N
1516514496.0,286046671.9,N
1516514515.8,286047439.6,Y
1516514535.6,286047723.8,P
1516514555.5,286046769.2,N
1516514575.3,286047724.4,N
1516514595.1,286047721.3,N
1516514615.9,286047724.1,N
1516514635.7,286047724.1,N
1516514655.5,286047691.5,N
1516514675.3,286047724.2,N
1516514695.2,286047724.2,N
1516514715.0,286047721.3,N
1516514715.9,286047721.3,N
1516514735.7,286047257.8,N
1516514755.6,286047721.3,N
1516514775.4,286047721.3,N
1516514795.2,286047723.8,N
1516514815.1,286047723.8,N
1516514816.0,286047723.8,N
1516514835.8,286047724.4,N
1516514855.6,286047724.3,N
1516514875.5,286047723.8,N
1516514895.3,286047723.7,N
1516514915.1,286047724.3,N
1516514935.9,286047724.4,N
1516514955.7,286047723.7,N
1516514975.5,286047723.7,N
1516514995.3,286047721.3,N
1516515015.2,286047724.4,N
1516515035.0,286047724.1,N
1516515035.9,286047724.1,N
1516515055.7,286047723.8,N
1516515075.6,286047721.3,Y
1516515095.4,286047049.1,P
1516515115.2,286047048.4,N
1516515135.1,286047048.5,N
1516515136.0,286047048.5,N
1516515155.8,286047049.1,N
1516515175.6,286047049.1,N
1516515195.5,286047048.4,N
1516515215.3,286047047.8,N
1516515235.1,286047048.4,N
1516515255.9,286047048.4,N
1516515275.7,286047048.2,N
1516515295.5,286047047.8,N
1516515315.4,286047048.6,N
1516515335.2,286047048.6,N
1516515355.0,286047048.1,N
1516515355.9,286047048.1,N
1516515375.8,286047048.1,N
1516515395.6,286047048.5,N
1516515415.4,286047049.1,N
1516515435.2,286047048.5,N
1516515455.1,286047048.6,N
1516515456.0,286047048.6,N
1516515475.8,286047049.1,N
1516515495.6,286047049.2,N
1516515515.5,286047048.3,N
1516515535.3,286047048.4,N
1516515555.1,286047049.0,N
1516515575.9,286047048.7,N
1516515595.7,286047048.4,N
1516515615.5,286047048.4,N
1516515635.4,286047049.1,Y
1516515655.2,286046998.6,P
1516515675.0,286047000.8,N
1516515675.9,286047000.8,N
1516515695.8,286047000.8,N
1516515715.6,286046998.6,N
1516515735.4,286046998.5,N
1516515755.3,286047000.7,N
1516515775.1,286047001.1,N
1516515776.0,286047001.1,N
1516515795.8,286046998.6,N
1516515815.7,286046998.6,N
1516515835.5,286047001.1,N
1516515855.3,286047001.1,N
1516515875.1,286046998.6,N
1516515895.9,286046998.4,N
1516515915.7,286047001.1,N
1516515935.5,286047000.8,N
1516515955.4,286046998.6,N
1516515975.2,286046998.4,N
1516515995.0,286047001.1,N
1516515995.9,286047001.1,N
1516516015.8,286047001.1,N
1516516035.6,286046998.3,N
1516516055.4,286046998.6,N
1516516075.3,286047000.8,N
1516516095.1,286047001.1,N
1516516096.0,286047001.1,N
1516516115.8,286046998.4,N
1516516135.7,286046998.3,N
1516516155.5,286047001.1,N
1516516175.3,286047000.8,N
1516516195.1,286046998.6,N
1516516215.9,286046998.2,N
1516516235.7,286047001.0,N
1516516255.5,286047000.9,N
1516516275.4,286047001.1,N
1516516295.2,286047001.2,N
1516516315.0,286047000.6,N
1516516315.9,286047000.6,N
1516516335.8,286047000.5,N
1516516355.6,286047001.1,N
1516516375.4,286047000.8,N
1516516395.3,286047000.5,N
1516516415.1,286047000.4,N
1516516416.0,286047000.4,N
1516516435.8,286047000.8,N
1516516455.7,286047000.8,N
1516516475.5,286047000.4,N
1516516495.3,286047000.3,N
1516516515.1,286047000.7,N
1516516535.9,286047000.7,N
1516516555.7,286047000.0,N
1516516575.5,286047000.3,N
1516516595.4,286047000.7,N
1516516615.2,286047000.7,N
1516516635.0,286047000.4,N
1516516635.9,286047000.4,N
1516516655.8,286047000.4,N
1516516675.6,286047001.1,N
1516516695.4,286047001.1,N
1516516715.3,286047000.4,N
1516516735.1,286047000.4,N
1516516736.0,286047000.4,N
1516516755.8,286047001.1,Y
1516516775.7,286046998.3,P
1516516795.5,286047001.2,N
1516516815.3,286047001.1,N
1516516835.2,286046998.4,N
1516516855.9,286046998.7,N
1516516875.7,286046998.1,N
1516516895.6,286047001.2,N
1516516915.4,286046998.7,N
1516516935.2,286046998.7,N
1516516955.1,286046998.5,N
1516516956.0,286046998.5,N
1516516975.8,286046998.1,N
1516516995.6,286046998.8,N
1516517015.4,286046998.9,N
1516517035.3,286046998.3,N
1516517055.1,286046998.6,N
1516517075.8,286046999.3,N
1516517095.7,286046999.3,N
1516517115.5,286046998.7,N
1516517135.3,286046998.7,N
1516517155.2,286046999.1,N
1516517175.9,286046998.8,N
1516517195.7,286046998.2,N
1516517215.6,286046998.2,N
1516517235.4,286046998.7,N
1516517255.2,286046998.8,N
1516517275.1,286046998.5,N
1516517276.0,286046998.5,N
1516517295.8,286046998.5,N
1516517315.6,286046999.0,N
1516517335.4,286046999.3,N
1516517355.3,286046998.3,N
1516517375.1,286046999.3,N
1516517395.9,286046996.6,Y
1516517415.7,286046998.3,P
1516517435.5,286047001.2,P
1516517455.3,286047001.1,N
1516517475.2,286046998.4,N
1516517495.0,286046998.7,N
1516517495.9,286046998.7,N
1516517515.7,286046998.2,N
1516517535.6,286046998.2,N
1516517555.4,286046998.4,N
1516517575.2,286046998.4,N
1516517595.1,286046998.1,N
1516517596.0,286046998.1,N
1516517615.8,286046998.1,N
1516517635.6,286046998.8,N
1516517655.5,286046998.8,N
1516517675.3,286046998.5,N
1516517695.1,286046998.2,N
1516517715.9,286046998.8,N
1516517735.7,286046998.8,N
1516517755.5,286046998.6,N
1516517775.3,286046998.6,N
1516517795.2,286046999.0,N
1516517815.0,286046999.3,N
1516517815.9,286046999.3,N
1516517835.7,286046998.4,N
1516517855.6,286046998.7,N
1516517875.4,286046999.1,N
1516517895.2,286046999.1,N
1516517915.1,286046998.8,N
1516517916.0,286046998.8,N
1516517935.8,286046998.8,N
1516517955.6,286046999.2,N
1516517975.5,286046999.2,N
1516517995.3,286046998.8,Y
